Location: Nairn
(57.5833°N, 3.8667°W)
Time: 11:34:33
(UTC+00:00)

A-11 Canister half - All Passes

Search period start: 30 November 2020 00:00
Search period end: 10 December 2020 00:00
Orbit: 1516 x 1684 km, 47.2° (Epoch: 29 November)

Date Brightness Start Highest point End Pass type
(mag) Time Alt. Az. Time Alt. Az. Time Alt. Az.
30 Nov - 10:11:41 10° SSE 10:17:21 17° SE 10:23:07 10° E daylight
30 Nov - 12:11:18 10° SW 12:19:58 36° SSE 12:28:50 10° E daylight
30 Nov - 14:14:09 10° WSW 14:23:31 47° S 14:33:01 10° ESE daylight
30 Nov - 16:18:09 10° W 16:27:08 38° SSW 16:36:10 10° SE visible
30 Nov - 18:23:28 10° W 18:29:57 19° SW 18:36:26 10° S visible
01 Dec - 09:49:17 10° SSE 09:54:35 16° SE 09:59:58 10° E daylight
01 Dec - 11:48:33 10° SW 11:57:07 35° SSE 12:05:53 10° E daylight
01 Dec - 13:51:19 10° WSW 14:00:38 47° S 14:10:08 10° ESE daylight
01 Dec - 15:55:16 10° W 16:04:16 39° SSW 16:13:22 10° SE daylight
01 Dec - 18:00:25 10° W 18:07:08 20° SW 18:13:53 10° S visible
02 Dec - 09:26:56 10° SSE 09:31:49 15° SE 09:36:46 10° E daylight
02 Dec - 11:25:49 10° SSW 11:34:16 34° SSE 11:42:57 10° E daylight
02 Dec - 13:28:27 10° WSW 13:37:45 47° S 13:47:15 10° ESE daylight
02 Dec - 15:32:22 10° W 15:41:25 40° SSW 15:50:34 10° SE daylight
02 Dec - 17:37:23 10° W 17:44:20 22° SW 17:51:19 10° S visible
03 Dec - 09:04:39 10° SSE 09:09:03 14° SE 09:13:31 10° E daylight
03 Dec - 11:03:06 10° SSW 11:11:26 33° SSE 11:20:01 10° E daylight
03 Dec - 13:05:37 10° WSW 13:14:53 47° S 13:24:20 10° ESE daylight
03 Dec - 15:09:28 10° W 15:18:33 41° SSW 15:27:44 10° SE daylight
03 Dec - 17:14:22 10° W 17:21:32 23° SW 17:28:44 10° S visible
04 Dec - 08:42:28 10° SSE 08:46:18 13° SE 08:50:11 10° ESE daylight
04 Dec - 10:40:22 10° SSW 10:48:36 32° SSE 10:57:03 10° E daylight
04 Dec - 12:42:46 10° WSW 12:52:00 46° S 13:01:27 10° ESE daylight
04 Dec - 14:46:35 10° W 14:55:40 42° SSW 15:04:55 10° SE daylight
04 Dec - 16:51:23 10° W 16:58:44 24° SW 17:06:07 10° S visible
05 Dec - 08:20:25 10° SE 08:23:33 12° SE 08:26:43 10° ESE daylight
05 Dec - 10:17:41 10° SSW 10:25:47 31° SSE 10:34:05 10° E daylight
05 Dec - 12:19:56 10° WSW 12:29:07 46° S 12:38:32 10° ESE daylight
05 Dec - 14:23:41 10° W 14:32:48 42° SSW 14:42:05 10° SE daylight
05 Dec - 16:28:24 10° W 16:35:54 25° SW 16:43:29 10° S visible
06 Dec - 07:58:37 10° SE 08:00:48 11° SE 08:03:01 10° ESE daylight
06 Dec - 09:55:00 10° SSW 10:02:57 30° SSE 10:11:07 10° E daylight
06 Dec - 11:57:07 10° WSW 12:06:15 45° S 12:15:37 10° ESE daylight
06 Dec - 14:00:48 10° W 14:09:56 43° SSW 14:19:14 10° SE daylight
06 Dec - 16:05:25 10° W 16:13:06 26° SW 16:20:50 10° SSE visible
07 Dec - 09:32:19 10° SSW 09:40:08 29° SE 09:48:09 10° E daylight
07 Dec - 11:34:18 10° WSW 11:43:22 45° S 11:52:43 10° ESE daylight
07 Dec - 13:37:55 10° W 13:47:04 44° SSW 13:56:24 10° SE daylight
07 Dec - 15:42:28 10° W 15:50:16 27° SW 15:58:10 10° SSE daylight
08 Dec - 09:09:39 10° SSW 09:17:19 28° SE 09:25:11 10° E daylight
08 Dec - 11:11:29 10° SW 11:20:30 44° SSE 11:29:48 10° E daylight
08 Dec - 13:15:03 10° W 13:24:11 44° SSW 13:33:32 10° SE daylight
08 Dec - 15:19:31 10° W 15:27:27 28° SW 15:35:28 10° SSE daylight
09 Dec - 08:47:01 10° SSW 08:54:31 27° SE 09:02:12 10° E daylight
09 Dec - 10:48:40 10° SW 10:57:39 44° SSE 11:06:53 10° E daylight
09 Dec - 12:52:10 10° WSW 13:01:19 45° S 13:10:41 10° ESE daylight
09 Dec - 14:56:34 10° W 15:04:37 29° SW 15:12:45 10° SSE daylight
09 Dec - 17:05:57 10° WSW 17:06:47 10° WSW 17:07:37 10° SW visible
